Location: Newark
(45.9456°N, 15.4064°E)
Time: 03:28:03
(UTC+00:00)

SR - Pass Details

Date: 28 January 2020
Orbit: 575 x 881 km, 66.7° (Epoch: 17 February)

Event Time Altitude Azimuth Distance (km) Brightness Sun altitude
Rises 23:17:37 0° 283° (WNW) 3,478 - -62.2°
Reaches altitude 10° 23:21:43 10° 310° (NW) 2,542 - -62.1°
Maximum altitude 23:24:24 13° 337° (NNW) 2,314 - -62.1°
Drops below altitude 10° 23:27:04 10° 5° (N) 2,517 - -62.0°
Sets 23:31:05 0° 32° (NNE) 3,412 - -61.9°
